Weather History for Honolulu, HI

Change the Weather History Date:

Monday, November 19, 2012

  Actual Average Record
Temperature  
Mean Temperature 72 °F 77 °F  
Max Temperature 80 °F 84 °F 90 °F (1995)
Min Temperature 64 °F 71 °F 63 °F (1895)
Degree Days  
Heating Degree Days 0 0  
Month to date heating degree days 0 0  
Since 1 July heating degree days 0 0  
Cooling Degree Days 7 12  
Month to date cooling degree days 228 251  
Year to date cooling degree days 4093 4197  
Growing Degree Days 22 (Base 50)    
Moisture  
Dew Point 65 °F    
Average Humidity 77    
Maximum Humidity 100    
Minimum Humidity 54    
Precipitation  
Precipitation 0.00 in 0.07 in 2.62 in (1893)
Month to date precipitation 0.13 1.59  
Year to date precipitation 8.50 13.03  
Snow  
Snow 0.00 in - - ()
Month to date snowfall 0.0  
Since 1 July snowfall 0.0  
Since 1 September snowfall 0.0  
Snow Depth 0.00 in    
Sea Level Pressure  
Sea Level Pressure 30.06 in    
Wind  
Wind Speed 10 mph (NE)    
Max Wind Speed 17 mph    
Max Gust Speed 25 mph    
Visibility 10 miles    
Events      
T = Trace of Precipitation, MM = Missing Value Source: NWS Daily Summary

Daily Weather History Graph

Daily Weather History Graph

Search for Another Location

Airport:

Trip Planner

Search our weather history database for the weather conditions in past years. The results will help you decide how hot, cold, wet, or windy it might be!

Date:

Astronomy

Nov. 19, 2012 Rise Set
Actual Time 6:45 AM HST 5:48 PM HST
Civil Twilight 6:21 AM HST 6:12 PM HST
Nautical Twilight 5:54 AM HST 6:39 PM HST
Astronomical Twilight 5:28 AM HST 7:06 PM HST
Moon 12:12 PM HST (11/19) No Moon Set
Length of Visible Light 11h 50m
Length of Day
11h 03m
Waxing Crescent, 43% of the Moon is Illuminated
Nov 19
Waxing Crescent
Nov 20
First Quarter
Nov 28
Full
Dec 6
Last Quarter
Dec 12
New

Hourly Weather History & Observations

Time (HST) Temp. Heat Index Dew Point Humidity Pressure Visibility Wind Dir Wind Speed Gust Speed Precip Events Conditions
12:53 AM 66.9 °F - 64.9 °F 93% 30.06 in 10.0 mi NW 4.6 mph - N/A   Partly Cloudy
1:53 AM 66.9 °F - 64.9 °F 93% 30.05 in 10.0 mi North 3.5 mph - N/A   Scattered Clouds
2:53 AM 66.0 °F - 64.9 °F 96% 30.05 in 10.0 mi Calm Calm - N/A   Scattered Clouds
3:53 AM 64.9 °F - 64.0 °F 97% 30.05 in 10.0 mi Calm Calm - N/A   Scattered Clouds
4:53 AM 66.0 °F - 66.0 °F 100% 30.05 in 10.0 mi North 5.8 mph - N/A   Scattered Clouds
5:53 AM 66.0 °F - 66.0 °F 100% 30.06 in 10.0 mi WNW 6.9 mph - N/A   Scattered Clouds
6:53 AM 66.0 °F - 64.9 °F 96% 30.07 in 10.0 mi Variable 5.8 mph - N/A   Scattered Clouds
7:53 AM 69.1 °F - 64.9 °F 87% 30.09 in 10.0 mi ENE 10.4 mph 18.4 mph N/A   Scattered Clouds
8:53 AM 71.1 °F - 64.0 °F 78% 30.10 in 10.0 mi East 10.4 mph - N/A   Scattered Clouds
9:53 AM 73.0 °F - 64.9 °F 76% 30.11 in 10.0 mi ENE 15.0 mph 21.9 mph N/A   Scattered Clouds
10:53 AM 73.9 °F - 64.0 °F 71% 30.10 in 10.0 mi East 12.7 mph - N/A   Mostly Cloudy
11:53 AM 75.9 °F - 63.0 °F 64% 30.07 in 10.0 mi East 11.5 mph 20.7 mph N/A   Scattered Clouds
12:53 PM 77.0 °F - 63.0 °F 62% 30.04 in 10.0 mi ENE 11.5 mph - N/A   Scattered Clouds
1:53 PM 80.1 °F 81.2 °F 62.1 °F 54% 30.02 in 10.0 mi East 11.5 mph 21.9 mph N/A   Scattered Clouds
2:53 PM 79.0 °F - 63.0 °F 58% 30.01 in 10.0 mi NE 15.0 mph - N/A   Scattered Clouds
3:53 PM 78.1 °F - 64.0 °F 62% 30.01 in 10.0 mi NE 15.0 mph - N/A   Partly Cloudy
4:53 PM 75.9 °F - 64.0 °F 67% 30.03 in 10.0 mi ENE 12.7 mph - N/A   Partly Cloudy
5:53 PM 73.9 °F - 64.0 °F 71% 30.04 in 10.0 mi NNE 11.5 mph - N/A   Partly Cloudy
6:53 PM 73.9 °F - 64.9 °F 73% 30.06 in 10.0 mi ENE 12.7 mph - N/A   Partly Cloudy
7:53 PM 73.9 °F - 66.0 °F 76% 30.08 in 10.0 mi ENE 12.7 mph - N/A   Partly Cloudy
8:53 PM 73.0 °F - 66.0 °F 79% 30.09 in 10.0 mi ENE 11.5 mph - N/A   Partly Cloudy
9:53 PM 73.0 °F - 66.0 °F 79% 30.10 in 10.0 mi ENE 11.5 mph - N/A   Partly Cloudy
10:53 PM 73.0 °F - 64.9 °F 76% 30.07 in 10.0 mi ENE 12.7 mph - N/A   Scattered Clouds
11:53 PM 73.0 °F - 64.0 °F 73% 30.07 in 10.0 mi ENE 9.2 mph - N/A   Scattered Clouds